TimeAKST,TemperatureF,Dew PointF,Humidity,Sea Level PressureIn,VisibilityMPH,Wind Direction,Wind SpeedMPH,Gust SpeedMPH,PrecipitationIn,Events,Conditions,WindDirDegrees,DateUTC
12:56 AM,27.0,19.0,72,29.91,10.0,West,17.3,-,N/A,,Mostly Cloudy,270,2013-01-15 09:56:00
1:56 AM,25.0,16.0,69,29.96,10.0,West,20.7,-,N/A,,Overcast,280,2013-01-15 10:56:00
2:56 AM,23.0,15.1,72,30.01,10.0,West,16.1,-,N/A,,Overcast,280,2013-01-15 11:56:00
3:52 AM,19.4,10.4,68,30.02,10.0,West,20.7,28.8,N/A,,Mostly Cloudy,260,2013-01-15 12:52:00
3:56 AM,19.0,10.0,68,30.05,10.0,West,19.6,28.8,N/A,,Mostly Cloudy,260,2013-01-15 12:56:00
4:56 AM,16.0,8.1,71,30.08,10.0,West,15.0,-,N/A,,Partly Cloudy,260,2013-01-15 13:56:00
5:27 AM,15.8,8.6,73,30.07,10.0,West,10.4,-,N/A,,Overcast,260,2013-01-15 14:27:00
5:56 AM,16.0,8.1,71,30.11,10.0,WSW,11.5,-,N/A,,Overcast,250,2013-01-15 14:56:00
6:30 AM,15.8,8.6,73,30.08,10.0,WSW,8.1,-,N/A,,Mostly Cloudy,250,2013-01-15 15:30:00
6:55 AM,12.2,6.8,79,30.12,10.0,SW,4.6,-,N/A,,Scattered Clouds,230,2013-01-15 15:55:00
7:55 AM,12.2,6.8,79,30.15,10.0,SSW,2.3,-,N/A,,Mostly Cloudy,200,2013-01-15 16:55:00
8:55 AM,10.4,6.8,85,30.15,-9999.0,ENE,2.3,-,N/A,,Mostly Cloudy,70,2013-01-15 17:55:00
9:55 AM,10.4,8.6,92,30.17,10.0,South,3.5,-,N/A,,Mostly Cloudy,170,2013-01-15 18:55:00
10:05 AM,10.4,6.8,85,30.14,10.0,ESE,2.3,-,N/A,Snow,Light Snow,120,2013-01-15 19:05:00
10:55 AM,12.2,8.6,85,30.15,10.0,SE,1.2,-,N/A,Snow,Light Snow,140,2013-01-15 19:55:00
11:55 AM,12.2,8.6,85,30.16,10.0,South,2.3,-,N/A,Snow,Light Snow,190,2013-01-15 20:55:00
12:30 PM,12.2,8.6,85,30.17,10.0,South,3.5,-,N/A,,Mostly Cloudy,170,2013-01-15 21:30:00
12:55 PM,8.6,6.8,92,30.20,10.0,Calm,Calm,-,N/A,,Mostly Cloudy,0,2013-01-15 21:55:00
1:55 PM,10.4,6.8,85,30.22,10.0,Calm,Calm,-,N/A,,Mostly Cloudy,0,2013-01-15 22:55:00
2:55 PM,6.8,3.2,85,30.23,10.0,Calm,Calm,-,N/A,,Mostly Cloudy,0,2013-01-15 23:55:00
3:55 PM,10.4,6.8,85,30.24,10.0,Calm,Calm,-,N/A,,Mostly Cloudy,0,2013-01-16 00:55:00
4:55 PM,10.4,6.8,85,30.25,10.0,Calm,Calm,-,N/A,,Mostly Cloudy,0,2013-01-16 01:55:00
5:55 PM,10.4,6.8,85,30.24,10.0,Calm,Calm,-,N/A,,Overcast,0,2013-01-16 02:55:00
6:55 PM,10.4,6.8,85,30.25,10.0,East,4.6,-,N/A,,Overcast,100,2013-01-16 03:55:00
7:55 PM,10.4,6.8,85,30.25,10.0,South,4.6,-,N/A,,Overcast,190,2013-01-16 04:55:00
8:55 PM,8.6,5.0,85,30.25,10.0,ESE,5.8,-,N/A,,Overcast,120,2013-01-16 05:55:00
9:55 PM,10.4,6.8,85,30.25,10.0,Variable,4.6,-,N/A,,Overcast,0,2013-01-16 06:55:00
10:56 PM,9.0,6.1,88,30.25,10.0,Calm,Calm,-,N/A,,Overcast,0,2013-01-16 07:56:00
11:56 PM,8.1,3.9,83,30.26,10.0,ENE,3.5,-,N/A,,Mostly Cloudy,70,2013-01-16 08:56:00